Regional Weather Roundup
Issued by NWS

Home | Current Version | Previous Version | Text Only | Print | Product List | Glossary On
Versions: 1 2 3 4 5 6 7 8 9 10 11 12 13 14 15 16 17 18 19 20 21 22 23 24 25 26 27 28 29 30 31 32 33 34 35 36 37 38 39 40 41 42 43 44 45 46 47 48 49 50
000
ASUS46 KPQR 031210
RWROR

OREGON REGIONAL WEATHER ROUNDUP
NATIONAL WEATHER SERVICE PORTLAND OR
500 AM PDT TUE MAY 03 2016

NOTE: "FAIR" INDICATES FEW OR NO CLOUDS BELOW 12,000 FEET WITH
NO SIGNIFICANT WEATHER AND/OR OBSTRUCTIONS TO VISIBILITY.

ORZ001>013-031300-
NORTHWEST OREGON


CITY           SKY/WX    TMP DP  RH WIND       PRES   REMARKS
ASTORIA        CLOUDY    55  52  89 S3        30.03F FOG
6HR MIN TEMP:  55; 6HR MAX TEMP:  57; 6HR PCP: TRACE;

NEWPORT        CLOUDY    54  52  94 CALM      30.08R
PORTLAND       CLOUDY    58  49  72 E3        30.02S
6HR MIN TEMP:  57; 6HR MAX TEMP:  67;

VANCOUVER WA   CLOUDY    57  49  74 CALM      30.02R
6HR MIN TEMP:  56; 6HR MAX TEMP:  66;

SCAPPOOSE      CLOUDY    53  49  86 W3        30.02S
6HR MIN TEMP:  52; 6HR MAX TEMP:  64;

HILLSBORO      CLOUDY    56  48  74 CALM      30.02R
6HR MIN TEMP:  55; 6HR MAX TEMP:  66;

AURORA         MOCLDY    53  49  86 CALM      30.03S
6HR MIN TEMP:  53; 6HR MAX TEMP:  63; 6HR PCP: TRACE;

MCMINNVILLE    MOCLDY    53  48  83 NW3       30.03R
6HR MIN TEMP:  53; 6HR MAX TEMP:  61; 6HR PCP:  0.02;

SALEM          PTCLDY    53  48  83 CALM      30.02S
6HR MIN TEMP:  52; 6HR MAX TEMP:  66; 6HR PCP: TRACE;

CORVALLIS        N/A     50  46  87 W3        30.06R
EUGENE         PTCLDY    48  46  93 S5        30.05S
6HR MIN TEMP:  48; 6HR MAX TEMP:  60;

$$

ORZ021-028-031300-
SOUTHWEST OREGON


CITY           SKY/WX    TMP DP  RH WIND       PRES   REMARKS
NORTH BEND     CLOUDY    55  52  88 CALM      30.07S
6HR MIN TEMP:  55; 6HR MAX TEMP:  55;

ROSEBURG       PTCLDY    51  48  89 CALM      30.03S
6HR MIN TEMP:  51; 6HR MAX TEMP:  60;

SEXTON SUMMIT  PTCLDY    51  36  56 SE7       30.05F
6HR MIN TEMP:  51; 6HR MAX TEMP:  55;

MEDFORD        PTCLDY    53  44  71 S3        30.03S
6HR MIN TEMP:  51; 6HR MAX TEMP:  63;

$$

ORZ014>016-041-031300-
COLUMBIA GORGE


CITY           SKY/WX    TMP DP  RH WIND       PRES   REMARKS
TROUTDALE      CLOUDY    57  50  77 CALM      30.02S
6HR MIN TEMP:  56; 6HR MAX TEMP:  70;

HOOD RIVER     MOCLDY    55  46  71 CALM      29.98S
THE DALLES     PTCLDY    65  41  41 NW8       29.95R
6HR MIN TEMP:  64; 6HR MAX TEMP:  72;

$$

ORZ029>031-041-044-049-050-061>064-502-503-505>511-031300-
EASTERN OREGON


CITY           SKY/WX    TMP DP  RH WIND       PRES   REMARKS
REDMOND        CLOUDY    51  36  56 S5        30.05R
6HR MIN TEMP:  46; 6HR MAX TEMP:  62; 6HR PCP: TRACE;

BEND           MOCLDY    48  36  61 CALM      30.06R
PRINEVILLE     MOCLDY    48  36  61 CALM      30.06S
KLAMATH FALLS  CLOUDY    48  39  71 S3        30.10S
6HR MIN TEMP:  45; 6HR MAX TEMP:  52;

LAKEVIEW       PTCLDY    34  28  80 NW7       30.15F WCI  28
HERMISTON      CLEAR     51  37  58 CALM      29.94S
6HR MIN TEMP:  50; 6HR MAX TEMP:  63;

PENDLETON      CLEAR     61  26  26 S6        29.98S
6HR MIN TEMP:  55; 6HR MAX TEMP:  64;

JOHN DAY       CLEAR     50  28  41 SE3       30.11S
MEACHAM        CLEAR     34  29  82 CALM      30.11R
6HR MIN TEMP:  34; 6HR MAX TEMP:  44;

LA GRANDE      CLEAR     39  25  56 CALM      30.11R
6HR MIN TEMP:  37; 6HR MAX TEMP:  57;

BAKER CITY     CLEAR     32  29  88 CALM      30.15R
6HR MIN TEMP:  32; 6HR MAX TEMP:  50;

BURNS          CLEAR     36  27  69 W8        30.13S WCI  30
6HR MIN TEMP:  34; 6HR MAX TEMP:  47;

ROME             N/A     39  31  72 S3        30.13R
6HR MIN TEMP:  37; 6HR MAX TEMP:  52;

ONTARIO        CLEAR     42  34  73 W5        30.13R
6HR MIN TEMP:  41; 6HR MAX TEMP:  55;

$$



USA.gov is the U.S. government's official web portal to all federal, state and local government web resources and services.